Glenwood, MN

9:36 AM CDT on August 25, 2016 (GMT -0500)
Glenwood Municipal

Weather History for KGHW - October, 2012

Change the Weather History Date:

Saturday, October 27, 2012

  Actual Average Record
Temperature  
Mean Temperature 32 °F -  
Max Temperature 41 °F 56 °F 78 °F (1983)
Min Temperature 23 °F 33 °F 14 °F (1951)
Degree Days  
Heating Degree Days 33    
Moisture  
Dew Point 23 °F    
Average Humidity 72    
Maximum Humidity 100    
Minimum Humidity 42    
Precipitation  
Precipitation 0.00 in - - ()
Sea Level Pressure  
Sea Level Pressure 30.29 in    
Wind  
Wind Speed 4 mph (SSW)    
Max Wind Speed 12 mph    
Max Gust Speed -    
Visibility 10 miles    
Events      
Averages and records for this station are not official NWS values.
T = Trace of Precipitation, MM = Missing Value Source: NWS Daily Summary

Daily Weather History Graph

Daily Weather History Graph

Search for Another Location

Airport or City:

Trip Planner

Search our weather history database for the weather conditions in past years. The results will help you decide how hot, cold, wet, or windy it might be!

Date:

Astronomy

Oct. 27, 2012 Rise Set
Actual Time 7:54 AM CDT 6:14 PM CDT
Civil Twilight 7:24 AM CDT 6:45 PM CDT
Nautical Twilight 6:49 AM CDT 7:20 PM CDT
Astronomical Twilight 6:14 AM CDT 7:54 PM CDT
Moon 5:04 PM CDT (10/27) 5:46 AM CDT (10/27)
Length of Visible Light 11h 21m
Length of Day
10h 19m
Waxing Gibbous, 96% of the Moon is Illuminated
Oct 27
Waxing Gibbous
Oct 29
Full
Nov 6
Last Quarter
Nov 13
New
Nov 20
First Quarter

Hourly Weather History & Observations

Time (CDT) Temp. Windchill Dew Point Humidity Pressure Visibility Wind Dir Wind Speed Gust Speed Precip Events Conditions
12:13 AM 30.2 °F 25.4 °F 24.8 °F 80% 30.30 in 10.0 mi SW 4.6 mph - N/A   Overcast
12:34 AM 30.2 °F 25.4 °F 24.8 °F 80% 30.30 in 10.0 mi SW 4.6 mph - N/A   Overcast
12:53 AM 30.2 °F 26.7 °F 24.8 °F 80% 30.30 in 10.0 mi SW 3.5 mph - N/A   Overcast
1:13 AM 30.2 °F 24.3 °F 24.8 °F 80% 30.30 in 10.0 mi SW 5.8 mph - N/A   Overcast
1:34 AM 30.2 °F - 24.8 °F 80% 30.30 in 10.0 mi Calm Calm - N/A   Overcast
1:53 AM 30.2 °F 26.7 °F 24.8 °F 80% 30.30 in 10.0 mi SW 3.5 mph - N/A   Overcast
2:13 AM 30.2 °F 26.7 °F 24.8 °F 80% 30.29 in 10.0 mi SW 3.5 mph - N/A   Overcast
2:53 AM 30.2 °F 25.4 °F 24.8 °F 80% 30.29 in 10.0 mi SW 4.6 mph - N/A   Overcast
3:13 AM 28.4 °F 22.2 °F 24.8 °F 86% 30.29 in 10.0 mi SW 5.8 mph - N/A   Mostly Cloudy
3:33 AM 26.6 °F 21.2 °F 24.8 °F 93% 30.29 in 10.0 mi SW 4.6 mph - N/A   Mostly Cloudy
3:53 AM 26.6 °F 21.2 °F 23.0 °F 86% 30.29 in 10.0 mi SW 4.6 mph - N/A   Scattered Clouds
4:13 AM 24.8 °F 19.1 °F 23.0 °F 93% 30.29 in 10.0 mi WSW 4.6 mph - N/A   Clear
4:33 AM 26.6 °F - 23.0 °F 86% 30.29 in 10.0 mi Calm Calm - N/A   Clear
4:53 AM 24.8 °F - 21.2 °F 86% 30.28 in 10.0 mi Calm Calm - N/A   Clear
5:13 AM 24.8 °F 19.1 °F 21.2 °F 86% 30.29 in 10.0 mi SW 4.6 mph - N/A   Clear
5:33 AM 24.8 °F 19.1 °F 21.2 °F 86% 30.29 in 10.0 mi WSW 4.6 mph - N/A   Clear
5:53 AM 23.0 °F 17.0 °F 21.2 °F 93% 30.30 in 10.0 mi WSW 4.6 mph - N/A   Clear
6:13 AM 24.8 °F 19.1 °F 21.2 °F 86% 30.30 in 10.0 mi West 4.6 mph - N/A   Clear
6:33 AM 24.8 °F 20.5 °F 21.2 °F 86% 30.30 in 10.0 mi WSW 3.5 mph - N/A   Clear
6:53 AM 24.8 °F - 24.8 °F 100% 30.30 in 10.0 mi Calm Calm - N/A   Clear
7:13 AM 24.8 °F - 23.0 °F 93% 30.30 in 10.0 mi Calm Calm - N/A   Clear
7:33 AM 23.0 °F - 21.2 °F 93% 30.30 in 10.0 mi Calm Calm - N/A   Clear
7:53 AM 23.0 °F - 23.0 °F 100% 30.31 in 10.0 mi Calm Calm - N/A   Clear
8:14 AM 23.0 °F - 23.0 °F 100% 30.31 in 10.0 mi Calm Calm - N/A   Clear
8:33 AM 23.0 °F - 21.2 °F 93% 30.31 in 10.0 mi Calm Calm - N/A   Clear
8:53 AM 24.8 °F - 23.0 °F 93% 30.32 in 10.0 mi Calm Calm - N/A   Clear
9:33 AM 28.4 °F - 26.6 °F 93% 30.32 in 10.0 mi Calm Calm - N/A   Clear
10:14 AM 32.0 °F - 28.4 °F 87% 30.32 in 10.0 mi Calm Calm - N/A   Clear
10:53 AM 35.6 °F 32.8 °F 24.8 °F 65% 30.32 in 10.0 mi SSW 3.5 mph - N/A   Clear
11:14 AM 35.6 °F - 23.0 °F 60% 30.32 in 10.0 mi Calm Calm - N/A   Clear
11:33 AM 37.4 °F 32.8 °F 21.2 °F 52% 30.32 in 10.0 mi SW 5.8 mph - N/A   Clear
11:53 AM 37.4 °F 31.4 °F 19.4 °F 48% 30.32 in 10.0 mi West 8.1 mph - N/A   Clear
12:13 PM 37.4 °F 32.1 °F 19.4 °F 48% 30.31 in 10.0 mi West 6.9 mph - N/A   Clear
12:33 PM 39.2 °F 33.6 °F 21.2 °F 49% 30.31 in 10.0 mi SSW 8.1 mph - N/A   Clear
12:53 PM 39.2 °F 33.6 °F 19.4 °F 45% 30.30 in 10.0 mi West 8.1 mph - N/A   Clear
1:14 PM 39.2 °F 34.2 °F 19.4 °F 45% 30.30 in 10.0 mi SW 6.9 mph - N/A   Clear
1:33 PM 41.0 °F 35.8 °F 19.4 °F 42% 30.30 in 10.0 mi West 8.1 mph - N/A   Clear
1:53 PM 39.2 °F 33.0 °F 19.4 °F 45% 30.29 in 10.0 mi West 9.2 mph - N/A   Clear
2:13 PM 41.0 °F 35.8 °F 21.2 °F 45% 30.28 in 10.0 mi WSW 8.1 mph - N/A   Clear
2:33 PM 39.2 °F 32.0 °F 21.2 °F 49% 30.27 in 10.0 mi West 11.5 mph - N/A   Clear
2:53 PM 39.2 °F 34.2 °F 21.2 °F 49% 30.27 in 10.0 mi West 6.9 mph - N/A   Clear
3:13 PM 39.2 °F 35.9 °F 21.2 °F 49% 30.26 in 10.0 mi WSW 4.6 mph - N/A   Scattered Clouds
3:33 PM 41.0 °F 37.1 °F 21.2 °F 45% 30.26 in 10.0 mi SSW 5.8 mph - N/A   Scattered Clouds
3:53 PM 41.0 °F 37.1 °F 21.2 °F 45% 30.25 in 10.0 mi West 5.8 mph - N/A   Clear
4:13 PM 39.2 °F 35.9 °F 21.2 °F 49% 30.25 in 10.0 mi SSW 4.6 mph - N/A   Scattered Clouds
4:33 PM 37.4 °F 33.8 °F 21.2 °F 52% 30.25 in 10.0 mi SSW 4.6 mph - N/A   Scattered Clouds
4:53 PM 37.4 °F 34.9 °F 21.2 °F 52% 30.25 in 10.0 mi SSW 3.5 mph - N/A   Clear
5:13 PM 37.4 °F 34.9 °F 23.0 °F 56% 30.25 in 10.0 mi South 3.5 mph - N/A   Clear
5:33 PM 37.4 °F 33.8 °F 24.8 °F 60% 30.25 in 10.0 mi SSE 4.6 mph - N/A   Clear
5:54 PM 35.6 °F 32.8 °F 24.8 °F 65% 30.25 in 10.0 mi SE 3.5 mph - N/A   Mostly Cloudy
6:13 PM 35.6 °F - 26.6 °F 70% 30.26 in 10.0 mi Calm Calm - N/A   Overcast
6:33 PM 35.6 °F - 24.8 °F 65% 30.26 in 10.0 mi Calm Calm - N/A   Overcast
6:54 PM 33.8 °F - 24.8 °F 70% 30.26 in 10.0 mi Calm Calm - N/A   Overcast
7:13 PM 33.8 °F 29.6 °F 26.6 °F 75% 30.27 in 10.0 mi ESE 4.6 mph - N/A   Overcast
7:33 PM 33.8 °F 29.6 °F 26.6 °F 75% 30.27 in 10.0 mi ESE 4.6 mph - N/A   Overcast
7:53 PM 33.8 °F 28.6 °F 26.6 °F 75% 30.27 in 10.0 mi SE 5.8 mph - N/A   Overcast
8:13 PM 35.6 °F 29.9 °F 26.6 °F 70% 30.27 in 10.0 mi SSE 6.9 mph - N/A   Overcast
8:33 PM 35.6 °F 30.7 °F 24.8 °F 65% 30.27 in 10.0 mi South 5.8 mph - N/A   Overcast
8:53 PM 35.6 °F 29.9 °F 24.8 °F 65% 30.27 in 10.0 mi SSE 6.9 mph - N/A   Overcast
9:13 PM 33.8 °F 27.7 °F 26.6 °F 75% 30.27 in 10.0 mi SSE 6.9 mph - N/A   Overcast
9:33 PM 32.0 °F 26.4 °F 26.6 °F 80% 30.27 in 10.0 mi SSE 5.8 mph - N/A   Overcast
9:53 PM 32.0 °F 25.6 °F 24.8 °F 75% 30.27 in 10.0 mi SSE 6.9 mph - N/A   Overcast
10:13 PM 32.0 °F 25.6 °F 24.8 °F 75% 30.27 in 10.0 mi SSE 6.9 mph - N/A   Overcast
10:33 PM 32.0 °F 26.4 °F 24.8 °F 75% 30.28 in 10.0 mi SSE 5.8 mph - N/A   Overcast
10:53 PM 32.0 °F 25.6 °F 24.8 °F 75% 30.27 in 10.0 mi SSE 6.9 mph - N/A   Overcast
11:13 PM 32.0 °F 25.6 °F 24.8 °F 75% 30.27 in 10.0 mi SSE 6.9 mph - N/A   Overcast
11:33 PM 32.0 °F 25.6 °F 24.8 °F 75% 30.27 in 10.0 mi SSE 6.9 mph - N/A   Overcast
11:53 PM 32.0 °F 24.8 °F 24.8 °F 75% 30.27 in 10.0 mi SSE 8.1 mph - N/A   Overcast